Location: Tel Aviv
(32.0670°N, 34.7670°E)
Time: 12:03:22
(UTC+03:00)

Transit 2A - Pass Details

Date: 26 January 2022
Orbit: 598 x 960 km, 66.7° (Epoch: 20 May)

Event Time Altitude Azimuth Distance (km) Brightness Sun altitude
Rises 09:10:50 0° 169° (SSE) 3,403 10.2 26.0°
Reaches altitude 10° 09:13:43 10° 155° (SSE) 2,528 10.2 26.4°
Maximum altitude 09:18:15 23° 104° (ESE) 1,839 9.2 27.1°
Drops below altitude 10° 09:22:59 10° 55° (NE) 2,666 9.0 27.8°
Sets 09:26:06 0° 42° (NE) 3,636 9.4 28.2°
